Capitol Logistics 228


PANC
Ted Stevens Anchorage International Airport
Anchorage, Alaska, US
KSEA
Seattle-Tacoma International Airport
Seattle, Washington, US

Route Details

Aircraft Information
Primary: Boeing 767-300BDSF
Backup: Not Available
Route Data
Distance: 1257nm
Sched. Duration: 3h 29m
Avg. Duration: 2h 84m (-45m)
Times Flown: 17
Recm'd Route: NOEND4 NOEND LAIRE BKA DUGGS YYJ MARNR7
Planned Altitude: 33,000ft
Origin Wx: PANC 221553Z 00000KT 10SM -RA BKN040 OVC055 01/M02 A3010 RMK AO2 RAB48FZRAB11E48 SLP196 P0000 I1000 T00111022
Dest. Wx: KSEA 221553Z 02014KT 10SM SCT050 BKN070 04/M01 A3002 RMK AO2 SLP174 T00441006
Notes:

Financial History
Total Freight: 2,335,975lbs
Average Load: 137,410lbs/flt
Fuel Used: 836,507lbs
Avg. Fuel Used: 49,206lbs/flt
Fuel Expense: $1,042,429
Avg. Fuel Expense: $61,319
Avg. Fuel Cost: $1.25/lbs
Total Gross Income: $3,037,123
Pilot Pay: $3,403
Total Expenses: $328,893
Total Revenue: $1,654,257
Average Revenue: $178,654.28